Regional Weather Roundup
Issued by NWS Charleston, WV

Home | Current Version | Previous Version | Graphics & Text | Print | Product List | Glossary On
Versions: 1 2 3 4 5 6 7 8 9 10 11 12 13 14 15 16 17 18 19 20 21 22 23 24 25 26 27 28 29 30 31 32 33 34 35 36 37 38 39 40 41 42 43 44 45 46 47 48 49 50
000
ASUS41 KRLX 021010
RWRRLX
West Virginia Regional Weather Roundup
National Weather Service Charleston WV
500 AM EST MON MAR 02 2015

Note: "fair" indicates few or no clouds below 12,000 feet with no
significant weather and/or obstructions to visibility.

WVZ003-021100-
Northern Panhandle of West Virginia

CITY           SKY/WX    TMP DP  RH WIND       PRES   REMARKS
WHEELING       CLOUDY    27  21  78 NW12      30.24R
$$

WVZ009-021100-
Northwest West Virginia

CITY           SKY/WX    TMP DP  RH WIND       PRES   REMARKS
PARKERSBURG    CLOUDY    31  26  82 NW14      30.34R
$$

WVZ006-021100-
Western West Virginia

CITY           SKY/WX    TMP DP  RH WIND       PRES   REMARKS
HUNTINGTON     CLOUDY    32  31  96 NW8G17    30.34R
$$

WVZ015-021100-
West Central West Virginia

CITY           SKY/WX    TMP DP  RH WIND       PRES   REMARKS
CHARLESTON     DRIZZLE   35  32  88 W8        30.31R
$$

WVZ022-031-021100-
North Central West Virginia

CITY           SKY/WX    TMP DP  RH WIND       PRES   REMARKS
CLARKSBURG     CLOUDY    33  30  88 W10G21    30.24R
MORGANTOWN     CLOUDY    33  27  78 W8        30.22R
$$

WVZ025-035-042-045-021100-
Southern West Virginia

CITY           SKY/WX    TMP DP  RH WIND       PRES   REMARKS
BECKLEY        CLOUDY    35  33  92 W14       30.20R
LOGAN          CLOUDY    36  36 100 NW7G22    30.24R FOG
BLUEFIELD      LGT RAIN  40  37  89 W14       30.20R FOG
LEWISBURG      CLOUDY    40  37  87 NW7       30.17R
$$

WVZ047-021100-
Northern Mountains of West Virginia

CITY           SKY/WX    TMP DP  RH WIND       PRES   REMARKS
ELKINS         LGT SNOW  33  32  96 NW10      30.17R FOG
$$

WVZ052-021100-
Eastern Panhandle of West Virginia

CITY           SKY/WX    TMP DP  RH WIND       PRES   REMARKS
MARTINSBURG    PTCLDY    31  28  89 CALM      30.08R FOG
PETERSBURG     MOCLDY    44  30  57 W13G18    30.10R
$$



USA.gov is the U.S. government's official web portal to all federal, state and local government web resources and services.